Volver al catálogo

STARLINK-37540

ActivoComunicacionesSSO
NORAD 68914·PAYLOAD·🇺🇸 United States

Lanzado Apr 30, 2026 desde Vandenberg Space Force Base

Loading…

Próximos Pases (próximas 24 horas)

TLE

ActualizadoSource: CelesTrak SupGP

Época: Sep 14, 2026, 21:25 UTC

1 68914C 26097V   26257.89284722  .00087724  00000+0  27238-2 0  2574
2 68914  97.2852  92.1302 0001616  97.1198 263.6905 15.33387031    15

Sigue STARLINK-37540 en tiempo real con AllMySat

Download on the App Store